Location: Devore Heights
(34.2372°N, 117.4156°W)
Time: 07:49:32
(UTC+00:00)

Vanguard 1 Rocket - Pass Details

Date: 17 September 2024
Orbit: 650 x 4218 km, 34.3° (Epoch: 09 October)

Event Time Altitude Azimuth Distance (km) Brightness Sun altitude
Rises 14:54:33 0° 281° (WNW) 6,711 11.2 15.6°
Reaches altitude 10° 14:58:19 10° 281° (W) 6,056 11.0 16.4°
Maximum altitude 15:20:17 81° 199° (SSW) 4,182 11.1 20.8°
Drops below altitude 10° 15:46:00 10° 116° (ESE) 6,879 13.6 26.0°
Sets 15:50:39 0° 115° (ESE) 7,604 13.4 26.9°
